START_TIME,STEP,MOV.,A46,t_acc.,A13,t_acc.,M47,t_acc.,A17,t_acc.,A28,t_acc.,M38,t_acc.
1979-07-30 06:00:24.560 ,0,1,,0,0.,4.8,0.,4.8,,0,0.,4.8,0.,4.8
1979-07-30 06:00:29.360 ,0,1,,0,2.,4.8,1.,4.8,,0,0.,4.8,0.,4.8
1979-07-30 06:00:34.160 ,0,1,,0,0.,4.8,0.,4.8,,0,0.,4.8,0.,4.8
1979-07-30 06:00:38.960 ,0,1,,0,0.,4.8,0.,4.8,,0,0.,4.8,0.,4.8
1979-07-30 06:00:43.760 ,0,1,,0,0.,4.8,0.,4.8,,0,0.,4.8,1.,4.8
1979-07-30 06:00:48.560 ,4,1,,0,0.,4.8,0.,4.8,,0,0.,4.8,0.,4.8
1979-07-30 06:00:53.360 ,4,1,,0,0.,4.8,0.,4.8,,0,0.,4.8,0.,4.8
1979-07-30 06:00:58.160 ,4,1,,0,1.,4.8,0.,4.8,,0,0.,4.8,0.,4.8
1979-07-30 06:01:02.960 ,4,1,,0,3.,4.8,0.,4.8,,0,0.,4.8,0.,4.8
1979-07-30 06:01:07.760 ,4,1,,0,3.,4.8,0.,4.8,,0,0.,4.8,1.,4.8
1979-07-30 06:01:12.560 ,7,1,,0,6.,4.8,0.,4.8,,0,0.,4.8,0.,4.8
1979-07-30 06:01:17.360 ,7,1,,0,4.,4.8,0.,4.8,,0,0.,4.8,0.,4.8
1979-07-30 06:01:22.160 ,7,1,,0,3.,4.8,0.,4.8,,0,0.,4.8,2.,4.8
1979-07-30 06:01:26.960 ,7,1,,0,0.,4.8,0.,4.8,,0,0.,4.8,0.,4.8
1979-07-30 06:01:31.760 ,7,1,,0,1.,4.8,0.,4.8,,0,0.,4.8,0.,4.8
1979-07-30 06:01:36.560 ,3,1,,0,0.,4.8,1.,4.8,,0,0.,4.8,0.,4.8
1979-07-30 06:01:41.360 ,3,1,,0,0.,4.8,0.,4.8,,0,0.,4.8,0.,4.8
1979-07-30 06:01:46.160 ,3,1,,0,2.,4.8,0.,4.8,,0,0.,4.8,0.,4.8
1979-07-30 06:01:50.960 ,3,1,,0,1.,4.8,0.,4.8,,0,0.,4.8,0.,4.8
1979-07-30 06:01:55.760 ,3,1,,0,4.,4.8,0.,4.8,,0,0.,4.8,0.,4.8
1979-07-30 06:02:00.560 ,0,1,,0,2.,4.8,0.,4.8,,0,0.,4.8,0.,4.8
1979-07-30 06:02:05.360 ,0,1,,0,1.,4.8,1.,4.8,,0,0.,4.8,1.,4.8
1979-07-30 06:02:10.160 ,0,1,,0,1.,4.8,0.,4.8,,0,0.,4.8,0.,4.8
1979-07-30 06:02:14.960 ,0,1,,0,0.,4.8,0.,4.8,,0,0.,4.8,0.,4.8
1979-07-30 06:02:19.760 ,0,1,,0,0.,4.8,0.,4.8,,0,0.,4.8,0.,4.8
1979-07-30 06:02:24.560 ,4,1,,0,0.,4.8,0.,4.8,,0,0.,4.8,0.,4.8
1979-07-30 06:02:29.360 ,4,1,,0,0.,4.8,0.,4.8,,0,0.,4.8,1.,4.8
1979-07-30 06:02:34.160 ,4,1,,0,1.,4.8,0.,4.8,,0,0.,4.8,1.,4.8
1979-07-30 06:02:38.960 ,4,1,,0,5.,4.8,0.,4.8,,0,1.,4.8,1.,4.8
1979-07-30 06:02:43.760 ,4,1,,0,3.,4.8,0.,4.8,,0,0.,4.8,0.,4.8
1979-07-30 06:02:48.560 ,7,1,,0,4.,4.8,0.,4.8,,0,0.,4.8,1.,4.8
1979-07-30 06:02:53.360 ,7,1,,0,4.,4.8,0.,4.8,,0,0.,4.8,0.,4.8
1979-07-30 06:02:58.160 ,7,1,,0,3.,4.8,0.,4.8,,0,0.,4.8,0.,4.8
1979-07-30 06:03:02.960 ,7,1,,0,0.,4.8,0.,4.8,,0,0.,4.8,0.,4.8
1979-07-30 06:03:07.760 ,7,1,,0,0.,4.8,0.,4.8,,0,0.,4.8,0.,4.8
1979-07-30 06:03:12.560 ,3,1,,0,0.,4.8,0.,4.8,,0,0.,4.8,0.,4.8
1979-07-30 06:03:17.360 ,3,1,,0,0.,4.8,0.,4.8,,0,0.,4.8,1.,4.8
1979-07-30 06:03:22.160 ,3,1,,0,1.,4.8,0.,4.8,,0,0.,4.8,0.,4.8
1979-07-30 06:03:26.960 ,3,1,,0,2.,4.8,0.,4.8,,0,0.,4.8,0.,4.8
1979-07-30 06:03:31.760 ,3,1,,0,1.,4.8,0.,4.8,,0,0.,4.8,0.,4.8
1979-07-30 06:03:36.560 ,0,1,,0,3.,4.8,0.,4.8,,0,0.,4.8,1.,4.8
1979-07-30 06:03:41.360 ,0,1,,0,4.,4.8,0.,4.8,,0,0.,4.8,1.,4.8
1979-07-30 06:03:46.160 ,0,1,,0,2.,4.8,0.,4.8,,0,0.,4.8,1.,4.8
1979-07-30 06:03:50.960 ,0,1,,0,0.,4.8,0.,4.8,,0,0.,4.8,2.,4.8
1979-07-30 06:03:55.760 ,0,1,,0,0.,4.8,0.,4.8,,0,0.,4.8,2.,4.8
1979-07-30 06:04:00.560 ,4,1,,0,0.,4.8,0.,4.8,,0,0.,4.8,0.,4.8
1979-07-30 06:04:05.360 ,4,1,,0,0.,4.8,0.,4.8,,0,0.,4.8,1.,4.8
1979-07-30 06:04:10.160 ,4,1,,0,0.,4.8,0.,4.8,,0,0.,4.8,1.,4.8
1979-07-30 06:04:14.960 ,4,1,,0,1.,4.8,0.,4.8,,0,0.,4.8,0.,4.8
1979-07-30 06:04:19.760 ,4,1,,0,4.,4.8,0.,4.8,,0,0.,4.8,0.,4.8
1979-07-30 06:04:24.560 ,7,1,,0,5.,4.8,1.,4.8,,0,0.,4.8,0.,4.8
1979-07-30 06:04:29.360 ,7,1,,0,2.,4.8,0.,4.8,,0,0.,4.8,0.,4.8
1979-07-30 06:04:34.160 ,7,1,,0,2.,4.8,0.,4.8,,0,0.,4.8,1.,4.8
1979-07-30 06:04:38.960 ,7,1,,0,0.,4.8,0.,4.8,,0,0.,4.8,0.,4.8
1979-07-30 06:04:43.760 ,7,1,,0,0.,4.8,0.,4.8,,0,0.,4.8,0.,4.8
1979-07-30 06:04:48.560 ,3,1,,0,0.,4.8,0.,4.8,,0,0.,4.8,0.,4.8
1979-07-30 06:04:53.360 ,3,1,,0,0.,4.8,0.,4.8,,0,0.,4.8,0.,4.8
1979-07-30 06:04:58.160 ,3,1,,0,1.,4.8,0.,4.8,,0,0.,4.8,0.,4.8
1979-07-30 06:05:02.960 ,3,1,,0,2.,4.8,0.,4.8,,0,0.,4.8,0.,4.8
1979-07-30 06:05:07.760 ,3,1,,0,5.,4.8,0.,4.8,,0,0.,4.8,1.,4.8
1979-07-30 06:05:12.560 ,0,1,,0,2.,4.8,0.,4.8,,0,0.,4.8,0.,4.8
1979-07-30 06:05:17.360 ,0,1,,0,3.,4.8,0.,4.8,,0,0.,4.8,1.,4.8
1979-07-30 06:05:22.160 ,0,1,,0,0.,4.8,0.,4.8,,0,0.,4.8,0.,4.8
1979-07-30 06:05:26.960 ,0,1,,0,0.,4.8,0.,4.8,,0,0.,4.8,0.,4.8
1979-07-30 06:05:31.760 ,0,1,,0,0.,4.8,0.,4.8,,0,0.,4.8,0.,4.8
1979-07-30 06:05:36.560 ,0,0,,0,0.,4.8,0.,4.8,,0,0.,4.8,0.,4.8
1979-07-30 06:05:41.360 ,0,0,,0,0.,4.8,0.,4.8,,0,0.,4.8,2.,4.8
1979-07-30 06:05:46.160 ,0,0,,0,0.,4.8,0.,4.8,,0,0.,4.8,1.,4.8
1979-07-30 06:05:50.960 ,0,0,,0,2.,4.8,0.,4.8,,0,0.,4.8,0.,4.8
1979-07-30 06:05:55.760 ,0,0,,0,5.,4.8,0.,4.8,,0,0.,4.8,1.,4.8
1979-07-30 06:06:00.560 ,0,0,,0,4.,4.8,0.,4.8,,0,0.,4.8,0.,4.8
1979-07-30 06:06:05.360 ,0,0,,0,1.,4.8,0.,4.8,,0,0.,4.8,0.,4.8
1979-07-30 06:06:10.160 ,0,0,,0,3.,4.8,0.,4.8,,0,0.,4.8,0.,4.8
1979-07-30 06:06:14.960 ,0,0,,0,0.,4.8,0.,4.8,,0,0.,4.8,0.,4.8
1979-07-30 06:06:19.760 ,0,0,,0,0.,4.8,0.,4.8,,0,0.,4.8,0.,4.8
1979-07-30 06:06:24.560 ,5,0,,0,0.,4.8,0.,4.8,,0,0.,4.8,0.,4.8
1979-07-30 06:06:29.360 ,5,0,,0,0.,4.8,0.,4.8,,0,0.,4.8,0.,4.8
1979-07-30 06:06:34.160 ,5,0,,0,0.,4.8,0.,4.8,,0,0.,4.8,0.,4.8
1979-07-30 06:06:38.960 ,5,0,,0,3.,4.8,0.,4.8,,0,0.,4.8,0.,4.8
1979-07-30 06:06:43.760 ,5,0,,0,3.,4.8,0.,4.8,,0,0.,4.8,0.,4.8
1979-07-30 06:06:48.560 ,5,0,,0,3.,4.8,0.,4.8,,0,0.,4.8,0.,4.8
1979-07-30 06:06:53.360 ,5,0,,0,1.,4.8,0.,4.8,,0,0.,4.8,0.,4.8
1979-07-30 06:06:58.160 ,5,0,,0,5.,4.8,0.,4.8,,0,0.,4.8,1.,4.8
1979-07-30 06:07:02.960 ,5,0,,0,0.,4.8,0.,4.8,,0,0.,4.8,0.,4.8
1979-07-30 06:07:07.760 ,5,0,,0,0.,4.8,0.,4.8,,0,0.,4.8,0.,4.8
1979-07-30 06:07:12.560 ,4,0,,0,0.,4.8,0.,4.8,,0,0.,4.8,0.,4.8
1979-07-30 06:07:17.360 ,4,0,,0,0.,4.8,0.,4.8,,0,0.,4.8,0.,4.8
1979-07-30 06:07:22.160 ,4,0,,0,2.,4.8,0.,4.8,,0,0.,4.8,0.,4.8
1979-07-30 06:07:26.960 ,4,0,,0,3.,4.8,0.,4.8,,0,0.,4.8,1.,4.8
1979-07-30 06:07:31.760 ,4,0,,0,1.,4.8,0.,4.8,,0,0.,4.8,0.,4.8
1979-07-30 06:07:36.560 ,4,0,,0,5.,4.8,0.,4.8,,0,0.,4.8,0.,4.8
1979-07-30 06:07:41.360 ,4,0,,0,1.,4.8,0.,4.8,,0,0.,4.8,0.,4.8
1979-07-30 06:07:46.160 ,4,0,,0,1.,4.8,0.,4.8,,0,0.,4.8,0.,4.8
1979-07-30 06:07:50.960 ,4,0,,0,0.,4.8,0.,4.8,,0,0.,4.8,1.,4.8
1979-07-30 06:07:55.760 ,4,0,,0,0.,4.8,0.,4.8,,0,0.,4.8,0.,4.8
1979-07-30 06:08:00.560 ,3,0,,0,0.,4.8,0.,4.8,,0,0.,4.8,0.,4.8
1979-07-30 06:08:05.360 ,3,0,,0,0.,4.8,0.,4.8,,0,0.,4.8,0.,4.8
1979-07-30 06:08:10.160 ,3,0,,0,1.,4.8,0.,4.8,,0,0.,4.8,2.,4.8
1979-07-30 06:08:14.960 ,3,0,,0,3.,4.8,0.,4.8,,0,0.,4.8,0.,4.8
1979-07-30 06:08:19.760 ,3,0,,0,2.,4.8,0.,4.8,,0,0.,4.8,0.,4.8
1979-07-30 06:08:24.560 ,3,0,,0,5.,4.8,0.,4.8,,0,0.,4.8,0.,4.8
1979-07-30 06:08:29.360 ,3,0,,0,5.,4.8,0.,4.8,,0,0.,4.8,0.,4.8
1979-07-30 06:08:34.160 ,3,0,,0,3.,4.8,0.,4.8,,0,0.,4.8,0.,4.8
1979-07-30 06:08:38.960 ,3,0,,0,0.,4.8,0.,4.8,,0,0.,4.8,0.,4.8
1979-07-30 06:08:43.760 ,3,0,,0,0.,4.8,0.,4.8,,0,0.,4.8,1.,4.8
1979-07-30 06:08:48.560 ,2,0,,0,0.,4.8,0.,4.8,,0,0.,4.8,0.,4.8
1979-07-30 06:08:53.360 ,2,0,,0,0.,4.8,0.,4.8,,0,0.,4.8,0.,4.8
1979-07-30 06:08:58.160 ,2,0,,0,0.,4.8,0.,4.8,,0,0.,4.8,2.,4.8
1979-07-30 06:09:02.960 ,2,0,,0,4.,4.8,0.,4.8,,0,0.,4.8,1.,4.8
1979-07-30 06:09:07.760 ,2,0,,0,3.,4.8,0.,4.8,,0,0.,4.8,0.,4.8
1979-07-30 06:09:12.560 ,2,0,,0,1.,4.8,0.,4.8,,0,0.,4.8,0.,4.8
1979-07-30 06:09:17.360 ,2,0,,0,4.,4.8,0.,4.8,,0,0.,4.8,0.,4.8
1979-07-30 06:09:22.160 ,2,0,,0,4.,4.8,0.,4.8,,0,0.,4.8,1.,4.8
1979-07-30 06:09:26.960 ,2,0,,0,0.,4.8,0.,4.8,,0,0.,4.8,0.,4.8
1979-07-30 06:09:31.760 ,2,0,,0,0.,4.8,0.,4.8,,0,0.,4.8,0.,4.8
1979-07-30 06:09:36.560 ,1,0,,0,0.,4.8,0.,4.8,,0,0.,4.8,0.,4.8
1979-07-30 06:09:41.360 ,1,0,,0,0.,4.8,0.,4.8,,0,0.,4.8,2.,4.8
1979-07-30 06:09:46.160 ,1,0,,0,1.,4.8,1.,4.8,,0,0.,4.8,1.,4.8
1979-07-30 06:09:50.960 ,1,0,,0,4.,4.8,0.,4.8,,0,0.,4.8,1.,4.8
1979-07-30 06:09:55.760 ,1,0,,0,3.,4.8,0.,4.8,,0,0.,4.8,0.,4.8
1979-07-30 06:10:00.560 ,1,0,,0,4.,4.8,0.,4.8,,0,0.,4.8,0.,4.8
1979-07-30 06:10:05.360 ,1,0,,0,4.,4.8,0.,4.8,,0,0.,4.8,0.,4.8
1979-07-30 06:10:10.160 ,1,0,,0,3.,4.8,0.,4.8,,0,0.,4.8,1.,4.8
1979-07-30 06:10:14.960 ,1,0,,0,0.,4.8,0.,4.8,,0,0.,4.8,2.,4.8
1979-07-30 06:10:19.760 ,1,0,,0,0.,4.8,0.,4.8,,0,0.,4.8,0.,4.8
1979-07-30 06:10:24.550 ,0,0,,0,0.,4.8,0.,4.8,,0,0.,4.8,0.,4.8
1979-07-30 06:10:29.350 ,0,0,,0,0.,4.8,0.,4.8,,0,0.,4.8,0.,4.8
1979-07-30 06:10:34.160 ,0,0,,0,0.,4.8,0.,4.8,,0,0.,4.8,0.,4.8
1979-07-30 06:10:38.960 ,0,0,,0,1.,4.8,0.,4.8,,0,0.,4.8,0.,4.8
1979-07-30 06:10:43.760 ,0,0,,0,0.,4.8,0.,4.8,,0,0.,4.8,0.,4.8
1979-07-30 06:10:48.550 ,0,0,,0,1.,4.8,0.,4.8,,0,0.,4.8,0.,4.8
1979-07-30 06:10:53.350 ,0,0,,0,1.,4.8,0.,4.8,,0,0.,4.8,0.,4.8
1979-07-30 06:10:58.160 ,0,0,,0,3.,4.8,0.,4.8,,0,0.,4.8,0.,4.8
1979-07-30 06:11:02.960 ,0,0,,0,0.,4.8,0.,4.8,,0,0.,4.8,0.,4.8
1979-07-30 06:11:07.760 ,0,0,,0,0.,4.8,0.,4.8,,0,0.,4.8,0.,4.8
1979-07-30 06:11:12.550 ,0,0,,0,0.,4.8,0.,4.8,,0,0.,4.8,0.,4.8
1979-07-30 06:11:17.350 ,0,0,,0,0.,4.8,0.,4.8,,0,0.,4.8,1.,4.8
1979-07-30 06:11:22.160 ,0,0,,0,0.,4.8,0.,4.8,,0,0.,4.8,0.,4.8
1979-07-30 06:11:26.960 ,0,0,,0,2.,4.8,0.,4.8,,0,0.,4.8,0.,4.8
1979-07-30 06:11:31.760 ,0,0,,0,3.,4.8,0.,4.8,,0,0.,4.8,1.,4.8
1979-07-30 06:11:36.550 ,0,0,,0,1.,4.8,0.,4.8,,0,0.,4.8,1.,4.8
1979-07-30 06:11:41.350 ,0,0,,0,0.,4.8,0.,4.8,,0,0.,4.8,0.,4.8
1979-07-30 06:11:46.160 ,0,0,,0,1.,4.8,0.,4.8,,0,0.,4.8,0.,4.8
1979-07-30 06:11:50.960 ,0,0,,0,0.,4.8,0.,4.8,,0,0.,4.8,0.,4.8
1979-07-30 06:11:55.760 ,0,0,,0,0.,4.8,0.,4.8,,0,0.,4.8,0.,4.8
1979-07-30 06:12:00.550 ,1,0,,0,1.,4.8,0.,4.8,,0,0.,4.8,1.,4.8
1979-07-30 06:12:05.350 ,1,0,,0,0.,4.8,0.,4.8,,0,0.,4.8,0.,4.8
1979-07-30 06:12:10.150 ,1,0,,0,1.,4.8,0.,4.8,,0,0.,4.8,0.,4.8
1979-07-30 06:12:14.960 ,1,0,,0,2.,4.8,0.,4.8,,0,0.,4.8,0.,4.8
1979-07-30 06:12:19.760 ,1,0,,0,2.,4.8,0.,4.8,,0,0.,4.8,0.,4.8
1979-07-30 06:12:24.550 ,1,0,,0,3.,4.8,0.,4.8,,0,0.,4.8,1.,4.8
1979-07-30 06:12:29.350 ,1,0,,0,3.,4.8,0.,4.8,,0,0.,4.8,0.,4.8
1979-07-30 06:12:34.160 ,1,0,,0,5.,4.8,0.,4.8,,0,0.,4.8,1.,4.8
1979-07-30 06:12:38.960 ,1,0,,0,0.,4.8,0.,4.8,,0,0.,4.8,0.,4.8
1979-07-30 06:12:43.760 ,1,0,,0,0.,4.8,0.,4.8,,0,0.,4.8,0.,4.8
1979-07-30 06:12:48.550 ,2,0,,0,0.,4.8,0.,4.8,,0,0.,4.8,2.,4.8
1979-07-30 06:12:53.350 ,2,0,,0,0.,4.8,0.,4.8,,0,0.,4.8,1.,4.8
1979-07-30 06:12:58.160 ,2,0,,0,0.,4.8,0.,4.8,,0,0.,4.8,0.,4.8
1979-07-30 06:13:02.960 ,2,0,,0,3.,4.8,0.,4.8,,0,1.,4.8,0.,4.8
1979-07-30 06:13:07.760 ,2,0,,0,4.,4.8,0.,4.8,,0,0.,4.8,1.,4.8
1979-07-30 06:13:12.550 ,2,0,,0,3.,4.8,0.,4.8,,0,0.,4.8,0.,4.8
1979-07-30 06:13:17.350 ,2,0,,0,5.,4.8,0.,4.8,,0,0.,4.8,0.,4.8
1979-07-30 06:13:22.160 ,2,0,,0,2.,4.8,0.,4.8,,0,0.,4.8,0.,4.8
1979-07-30 06:13:26.960 ,2,0,,0,0.,4.8,0.,4.8,,0,0.,4.8,0.,4.8
1979-07-30 06:13:31.760 ,2,0,,0,0.,4.8,0.,4.8,,0,0.,4.8,1.,4.8
1979-07-30 06:13:36.550 ,3,0,,0,0.,4.8,0.,4.8,,0,0.,4.8,1.,4.8
1979-07-30 06:13:41.350 ,3,0,,0,0.,4.8,0.,4.8,,0,0.,4.8,1.,4.8
1979-07-30 06:13:46.160 ,3,0,,0,1.,4.8,0.,4.8,,0,0.,4.8,0.,4.8
1979-07-30 06:13:50.960 ,3,0,,0,1.,4.8,0.,4.8,,0,0.,4.8,1.,4.8
1979-07-30 06:13:55.760 ,3,0,,0,0.,4.8,0.,4.8,,0,0.,4.8,0.,4.8
1979-07-30 06:14:00.550 ,3,0,,0,4.,4.8,0.,4.8,,0,0.,4.8,0.,4.8
1979-07-30 06:14:05.350 ,3,0,,0,3.,4.8,0.,4.8,,0,0.,4.8,0.,4.8
1979-07-30 06:14:10.150 ,3,0,,0,3.,4.8,0.,4.8,,0,0.,4.8,0.,4.8
1979-07-30 06:14:14.960 ,3,0,,0,0.,4.8,0.,4.8,,0,0.,4.8,0.,4.8
1979-07-30 06:14:19.760 ,3,0,,0,0.,4.8,0.,4.8,,0,0.,4.8,0.,4.8
1979-07-30 06:14:24.550 ,4,0,,0,0.,4.8,0.,4.8,,0,0.,4.8,0.,4.8
1979-07-30 06:14:29.350 ,4,0,,0,1.,4.8,0.,4.8,,0,0.,4.8,0.,4.8
1979-07-30 06:14:34.160 ,4,0,,0,0.,4.8,0.,4.8,,0,0.,4.8,0.,4.8
1979-07-30 06:14:38.960 ,4,0,,0,1.,4.8,0.,4.8,,0,0.,4.8,0.,4.8
1979-07-30 06:14:43.760 ,4,0,,0,3.,4.8,0.,4.8,,0,0.,4.8,0.,4.8
1979-07-30 06:14:48.550 ,4,0,,0,2.,4.8,0.,4.8,,0,0.,4.8,0.,4.8
1979-07-30 06:14:53.350 ,4,0,,0,2.,4.8,0.,4.8,,0,0.,4.8,1.,4.8
1979-07-30 06:14:58.160 ,4,0,,0,3.,4.8,0.,4.8,,0,0.,4.8,0.,4.8
1979-07-30 06:15:02.960 ,4,0,,0,0.,4.8,0.,4.8,,0,0.,4.8,1.,4.8
1979-07-30 06:15:07.760 ,4,0,,0,1.,4.8,0.,4.8,,0,0.,4.8,0.,4.8
1979-07-30 06:15:12.550 ,5,0,,0,0.,4.8,0.,4.8,,0,0.,4.8,0.,4.8
1979-07-30 06:15:17.350 ,5,0,,0,0.,4.8,0.,4.8,,0,0.,4.8,0.,4.8
1979-07-30 06:15:22.150 ,5,0,,0,2.,4.8,0.,4.8,,0,0.,4.8,1.,4.8
1979-07-30 06:15:26.960 ,5,0,,0,3.,4.8,0.,4.8,,0,0.,4.8,0.,4.8
1979-07-30 06:15:31.760 ,5,0,,0,1.,4.8,0.,4.8,,0,0.,4.8,0.,4.8
1979-07-30 06:15:36.550 ,5,0,,0,3.,4.8,0.,4.8,,0,0.,4.8,0.,4.8
1979-07-30 06:15:41.350 ,5,0,,0,2.,4.8,0.,4.8,,0,0.,4.8,0.,4.8
1979-07-30 06:15:46.160 ,5,0,,0,3.,4.8,0.,4.8,,0,0.,4.8,3.,4.8
1979-07-30 06:15:50.960 ,5,0,,0,0.,4.8,0.,4.8,,0,0.,4.8,0.,4.8
1979-07-30 06:15:55.760 ,5,0,,0,0.,4.8,0.,4.8,,0,0.,4.8,0.,4.8
1979-07-30 06:16:00.550 ,6,0,,0,0.,4.8,0.,4.8,,0,0.,4.8,1.,4.8
1979-07-30 06:16:05.350 ,6,0,,0,0.,4.8,0.,4.8,,0,0.,4.8,0.,4.8
1979-07-30 06:16:10.150 ,6,0,,0,0.,4.8,0.,4.8,,0,0.,4.8,0.,4.8
1979-07-30 06:16:14.960 ,6,0,,0,3.,4.8,0.,4.8,,0,0.,4.8,0.,4.8
1979-07-30 06:16:19.760 ,6,0,,0,2.,4.8,0.,4.8,,0,0.,4.8,1.,4.8
1979-07-30 06:16:24.550 ,6,0,,0,3.,4.8,0.,4.8,,0,0.,4.8,1.,4.8
1979-07-30 06:16:29.350 ,6,0,,0,5.,4.8,0.,4.8,,0,0.,4.8,0.,4.8
1979-07-30 06:16:34.160 ,6,0,,0,2.,4.8,0.,4.8,,0,0.,4.8,0.,4.8
1979-07-30 06:16:38.960 ,6,0,,0,0.,4.8,0.,4.8,,0,0.,4.8,0.,4.8
1979-07-30 06:16:43.760 ,6,0,,0,0.,4.8,0.,4.8,,0,0.,4.8,0.,4.8
1979-07-30 06:16:48.550 ,7,0,,0,0.,4.8,0.,4.8,,0,0.,4.8,1.,4.8
1979-07-30 06:16:53.350 ,7,0,,0,0.,4.8,0.,4.8,,0,0.,4.8,1.,4.8
1979-07-30 06:16:58.160 ,7,0,,0,4.,4.8,0.,4.8,,0,0.,4.8,0.,4.8
1979-07-30 06:17:02.960 ,7,0,,0,9.,4.8,0.,4.8,,0,0.,4.8,0.,4.8
1979-07-30 06:17:07.760 ,7,0,,0,13.,4.8,0.,4.8,,0,0.,4.8,0.,4.8
1979-07-30 06:17:12.560 ,7,0,,0,9.,4.8,0.,4.8,,0,0.,4.8,0.,4.8
1979-07-30 06:17:17.360 ,7,0,,0,13.,4.8,0.,4.8,,0,0.,4.8,0.,4.8
1979-07-30 06:17:22.160 ,7,0,,0,4.,4.8,0.,4.8,,0,0.,4.8,0.,4.8
1979-07-30 06:17:26.960 ,7,0,,0,0.,4.8,0.,4.8,,0,0.,4.8,0.,4.8
1979-07-30 06:17:31.760 ,7,0,,0,0.,4.8,0.,4.8,,0,0.,4.8,0.,4.8
1979-07-30 06:17:36.560 ,7,0,,0,0.,4.8,0.,4.8,,0,0.,4.8,0.,4.8
1979-07-30 06:17:41.360 ,7,0,,0,0.,4.8,0.,4.8,,0,0.,4.8,0.,4.8
1979-07-30 06:17:46.160 ,7,0,,0,3.,4.8,0.,4.8,,0,0.,4.8,0.,4.8
1979-07-30 06:17:50.960 ,7,0,,0,9.,4.8,0.,4.8,,0,0.,4.8,0.,4.8
1979-07-30 06:17:55.760 ,7,0,,0,15.,4.8,0.,4.8,,0,0.,4.8,0.,4.8
1979-07-30 06:18:00.560 ,7,0,,0,5.,4.8,0.,4.8,,0,0.,4.8,0.,4.8
1979-07-30 06:18:05.360 ,7,0,,0,9.,4.8,0.,4.8,,0,0.,4.8,0.,4.8
1979-07-30 06:18:10.160 ,7,0,,0,7.,4.8,0.,4.8,,0,0.,4.8,0.,4.8
1979-07-30 06:18:14.960 ,7,0,,0,0.,4.8,0.,4.8,,0,0.,4.8,0.,4.8
1979-07-30 06:18:19.760 ,7,0,,0,0.,4.8,0.,4.8,,0,0.,4.8,0.,4.8
1979-07-30 06:18:24.560 ,6,0,,0,0.,4.8,0.,4.8,,0,0.,4.8,0.,4.8
1979-07-30 06:18:29.360 ,6,0,,0,0.,4.8,0.,4.8,,0,0.,4.8,0.,4.8
1979-07-30 06:18:34.160 ,6,0,,0,2.,4.8,0.,4.8,,0,0.,4.8,0.,4.8
1979-07-30 06:18:38.960 ,6,0,,0,4.,4.8,0.,4.8,,0,0.,4.8,0.,4.8
1979-07-30 06:18:43.760 ,6,0,,0,2.,4.8,0.,4.8,,0,0.,4.8,1.,4.8
1979-07-30 06:18:48.560 ,6,0,,0,4.,4.8,0.,4.8,,0,0.,4.8,0.,4.8
1979-07-30 06:18:53.360 ,6,0,,0,3.,4.8,0.,4.8,,0,0.,4.8,0.,4.8
1979-07-30 06:18:58.160 ,6,0,,0,1.,4.8,0.,4.8,,0,0.,4.8,0.,4.8
1979-07-30 06:19:02.960 ,6,0,,0,0.,4.8,0.,4.8,,0,0.,4.8,0.,4.8
1979-07-30 06:19:07.760 ,6,0,,0,0.,4.8,0.,4.8,,0,0.,4.8,0.,4.8
1979-07-30 06:19:12.560 ,5,0,,0,0.,4.8,0.,4.8,,0,0.,4.8,1.,4.8
1979-07-30 06:19:17.360 ,5,0,,0,0.,4.8,0.,4.8,,0,0.,4.8,0.,4.8
1979-07-30 06:19:22.160 ,5,0,,0,1.,4.8,0.,4.8,,0,0.,4.8,0.,4.8
1979-07-30 06:19:26.960 ,5,0,,0,3.,4.8,0.,4.8,,0,0.,4.8,0.,4.8
1979-07-30 06:19:31.760 ,5,0,,0,5.,4.8,0.,4.8,,0,0.,4.8,0.,4.8
1979-07-30 06:19:36.560 ,5,0,,0,7.,4.8,0.,4.8,,0,0.,4.8,0.,4.8
1979-07-30 06:19:41.360 ,5,0,,0,4.,4.8,0.,4.8,,0,0.,4.8,1.,4.8
1979-07-30 06:19:46.160 ,5,0,,0,5.,4.8,0.,4.8,,0,0.,4.8,1.,4.8
1979-07-30 06:19:50.960 ,5,0,,0,0.,4.8,0.,4.8,,0,0.,4.8,0.,4.8
1979-07-30 06:19:55.760 ,5,0,,0,0.,4.8,0.,4.8,,0,0.,4.8,0.,4.8
1979-07-30 06:20:00.560 ,4,0,,0,0.,4.8,0.,4.8,,0,0.,4.8,0.,4.8
1979-07-30 06:20:05.360 ,4,0,,0,0.,4.8,0.,4.8,,0,0.,4.8,1.,4.8
1979-07-30 06:20:10.160 ,4,0,,0,0.,4.8,0.,4.8,,0,0.,4.8,0.,4.8
1979-07-30 06:20:14.960 ,4,0,,0,4.,4.8,0.,4.8,,0,0.,4.8,0.,4.8
1979-07-30 06:20:19.760 ,4,0,,0,2.,4.8,0.,4.8,,0,0.,4.8,0.,4.8
1979-07-30 06:20:24.560 ,4,0,,0,3.,4.8,0.,4.8,,0,0.,4.8,0.,4.8
1979-07-30 06:20:29.360 ,4,0,,0,2.,4.8,0.,4.8,,0,0.,4.8,0.,4.8
1979-07-30 06:20:34.160 ,4,0,,0,2.,4.8,0.,4.8,,0,0.,4.8,1.,4.8
1979-07-30 06:20:38.960 ,4,0,,0,0.,4.8,0.,4.8,,0,0.,4.8,0.,4.8
1979-07-30 06:20:43.760 ,4,0,,0,0.,4.8,0.,4.8,,0,0.,4.8,0.,4.8
1979-07-30 06:20:48.560 ,3,0,,0,0.,4.8,0.,4.8,,0,0.,4.8,0.,4.8
1979-07-30 06:20:53.360 ,3,0,,0,0.,4.8,0.,4.8,,0,0.,4.8,1.,4.8
1979-07-30 06:20:58.160 ,3,0,,0,0.,4.8,0.,4.8,,0,0.,4.8,0.,4.8
1979-07-30 06:21:02.960 ,3,0,,0,5.,4.8,0.,4.8,,0,0.,4.8,2.,4.8
1979-07-30 06:21:07.760 ,3,0,,0,3.,4.8,0.,4.8,,0,0.,4.8,0.,4.8
1979-07-30 06:21:12.560 ,3,0,,0,2.,4.8,0.,4.8,,0,0.,4.8,0.,4.8
1979-07-30 06:21:17.360 ,3,0,,0,4.,4.8,0.,4.8,,0,0.,4.8,0.,4.8
1979-07-30 06:21:22.160 ,3,0,,0,2.,4.8,0.,4.8,,0,0.,4.8,0.,4.8
1979-07-30 06:21:26.960 ,3,0,,0,0.,4.8,0.,4.8,,0,0.,4.8,1.,4.8
1979-07-30 06:21:31.760 ,3,0,,0,0.,4.8,0.,4.8,,0,0.,4.8,0.,4.8
1979-07-30 06:21:36.560 ,2,0,,0,0.,4.8,0.,4.8,,0,0.,4.8,1.,4.8
1979-07-30 06:21:41.360 ,2,0,,0,0.,4.8,0.,4.8,,0,0.,4.8,0.,4.8
1979-07-30 06:21:46.160 ,2,0,,0,1.,4.8,0.,4.8,,0,0.,4.8,0.,4.8
1979-07-30 06:21:50.960 ,2,0,,0,1.,4.8,0.,4.8,,0,0.,4.8,0.,4.8
1979-07-30 06:21:55.760 ,2,0,,0,6.,4.8,0.,4.8,,0,0.,4.8,1.,4.8
1979-07-30 06:22:00.560 ,2,0,,0,2.,4.8,0.,4.8,,0,0.,4.8,0.,4.8
1979-07-30 06:22:05.360 ,2,0,,0,2.,4.8,0.,4.8,,0,0.,4.8,0.,4.8
1979-07-30 06:22:10.160 ,2,0,,0,1.,4.8,0.,4.8,,0,0.,4.8,0.,4.8
1979-07-30 06:22:14.960 ,2,0,,0,0.,4.8,0.,4.8,,0,0.,4.8,2.,4.8
1979-07-30 06:22:19.760 ,2,0,,0,1.,4.8,0.,4.8,,0,0.,4.8,0.,4.8
1979-07-30 06:22:24.560 ,1,0,,0,0.,4.8,0.,4.8,,0,0.,4.8,1.,4.8
1979-07-30 06:22:29.360 ,1,0,,0,0.,4.8,0.,4.8,,0,0.,4.8,0.,4.8
1979-07-30 06:22:34.160 ,1,0,,0,0.,4.8,0.,4.8,,0,0.,4.8,1.,4.8
1979-07-30 06:22:38.960 ,1,0,,0,3.,4.8,0.,4.8,,0,0.,4.8,1.,4.8
1979-07-30 06:22:43.760 ,1,0,,0,3.,4.8,0.,4.8,,0,0.,4.8,0.,4.8
1979-07-30 06:22:48.560 ,1,0,,0,4.,4.8,0.,4.8,,0,0.,4.8,0.,4.8
1979-07-30 06:22:53.360 ,1,0,,0,4.,4.8,0.,4.8,,0,0.,4.8,1.,4.8
1979-07-30 06:22:58.160 ,1,0,,0,1.,4.8,0.,4.8,,0,0.,4.8,1.,4.8
1979-07-30 06:23:02.960 ,1,0,,0,0.,4.8,0.,4.8,,0,0.,4.8,1.,4.8
1979-07-30 06:23:07.760 ,1,0,,0,0.,4.8,0.,4.8,,0,0.,4.8,1.,4.8
1979-07-30 06:23:12.560 ,0,0,,0,0.,4.8,0.,4.8,,0,0.,4.8,0.,4.8
1979-07-30 06:23:17.360 ,0,0,,0,0.,4.8,0.,4.8,,0,0.,4.8,1.,4.8
1979-07-30 06:23:22.160 ,0,0,,0,1.,4.8,0.,4.8,,0,0.,4.8,0.,4.8
1979-07-30 06:23:26.960 ,0,0,,0,2.,4.8,0.,4.8,,0,0.,4.8,0.,4.8
1979-07-30 06:23:31.760 ,0,0,,0,0.,4.8,0.,4.8,,0,0.,4.8,0.,4.8
1979-07-30 06:23:36.560 ,0,0,,0,1.,4.8,0.,4.8,,0,0.,4.8,0.,4.8
1979-07-30 06:23:41.360 ,0,0,,0,2.,4.8,0.,4.8,,0,0.,4.8,0.,4.8
1979-07-30 06:23:46.160 ,0,0,,0,2.,4.8,0.,4.8,,0,0.,4.8,0.,4.8
1979-07-30 06:23:50.960 ,0,0,,0,0.,4.8,0.,4.8,,0,0.,4.8,0.,4.8
1979-07-30 06:23:55.760 ,0,0,,0,0.,4.8,0.,4.8,,0,0.,4.8,1.,4.8
1979-07-30 06:24:00.560 ,0,0,,0,0.,4.8,0.,4.8,,0,0.,4.8,0.,4.8
1979-07-30 06:24:05.360 ,0,0,,0,0.,4.8,1.,4.8,,0,0.,4.8,0.,4.8
1979-07-30 06:24:10.160 ,0,0,,0,0.,4.8,0.,4.8,,0,0.,4.8,0.,4.8
1979-07-30 06:24:14.960 ,0,0,,0,2.,4.8,0.,4.8,,0,0.,4.8,0.,4.8
1979-07-30 06:24:19.760 ,0,0,,0,1.,4.8,1.,4.8,,0,0.,4.8,1.,4.8
1979-07-30 06:24:24.560 ,0,0,,0,2.,4.8,0.,4.8,,0,0.,4.8,1.,4.8
1979-07-30 06:24:29.360 ,0,0,,0,4.,4.8,0.,4.8,,0,1.,4.8,0.,4.8
1979-07-30 06:24:34.160 ,0,0,,0,1.,4.8,0.,4.8,,0,0.,4.8,0.,4.8
1979-07-30 06:24:38.960 ,0,0,,0,0.,4.8,0.,4.8,,0,0.,4.8,0.,4.8
1979-07-30 06:24:43.760 ,0,0,,0,0.,4.8,0.,4.8,,0,0.,4.8,0.,4.8
1979-07-30 06:24:48.560 ,1,0,,0,0.,4.8,0.,4.8,,0,0.,4.8,1.,4.8
1979-07-30 06:24:53.360 ,1,0,,0,0.,4.8,0.,4.8,,0,0.,4.8,1.,4.8
1979-07-30 06:24:58.160 ,1,0,,0,0.,4.8,0.,4.8,,0,0.,4.8,1.,4.8
1979-07-30 06:25:02.960 ,1,0,,0,4.,4.8,0.,4.8,,0,0.,4.8,3.,4.8
1979-07-30 06:25:07.760 ,1,0,,0,2.,4.8,0.,4.8,,0,0.,4.8,0.,4.8
1979-07-30 06:25:12.560 ,1,0,,0,1.,4.8,0.,4.8,,0,0.,4.8,0.,4.8
1979-07-30 06:25:17.360 ,1,0,,0,5.,4.8,0.,4.8,,0,0.,4.8,0.,4.8
1979-07-30 06:25:22.160 ,1,0,,0,1.,4.8,0.,4.8,,0,0.,4.8,0.,4.8
1979-07-30 06:25:26.960 ,1,0,,0,0.,4.8,0.,4.8,,0,0.,4.8,1.,4.8
1979-07-30 06:25:31.760 ,1,0,,0,0.,4.8,0.,4.8,,0,0.,4.8,0.,4.8
1979-07-30 06:25:36.560 ,2,0,,0,0.,4.8,0.,4.8,,0,0.,4.8,0.,4.8
1979-07-30 06:25:41.360 ,2,0,,0,0.,4.8,0.,4.8,,0,0.,4.8,2.,4.8
1979-07-30 06:25:46.160 ,2,0,,0,1.,4.8,0.,4.8,,0,0.,4.8,0.,4.8
1979-07-30 06:25:50.960 ,2,0,,0,4.,4.8,0.,4.8,,0,0.,4.8,0.,4.8
1979-07-30 06:25:55.760 ,2,0,,0,0.,4.8,0.,4.8,,0,0.,4.8,0.,4.8
1979-07-30 06:26:00.560 ,2,0,,0,4.,4.8,0.,4.8,,0,0.,4.8,0.,4.8
1979-07-30 06:26:05.360 ,2,0,,0,2.,4.8,0.,4.8,,0,0.,4.8,1.,4.8
1979-07-30 06:26:10.160 ,2,0,,0,3.,4.8,0.,4.8,,0,0.,4.8,1.,4.8
1979-07-30 06:26:14.960 ,2,0,,0,0.,4.8,0.,4.8,,0,0.,4.8,1.,4.8
1979-07-30 06:26:19.760 ,2,0,,0,0.,4.8,0.,4.8,,0,0.,4.8,0.,4.8
1979-07-30 06:26:24.560 ,3,0,,0,0.,4.8,0.,4.8,,0,0.,4.8,0.,4.8
1979-07-30 06:26:29.360 ,3,0,,0,0.,4.8,0.,4.8,,0,0.,4.8,0.,4.8
1979-07-30 06:26:34.160 ,3,0,,0,0.,4.8,0.,4.8,,0,0.,4.8,0.,4.8
1979-07-30 06:26:38.960 ,3,0,,0,3.,4.8,0.,4.8,,0,0.,4.8,0.,4.8
1979-07-30 06:26:43.760 ,3,0,,0,1.,4.8,0.,4.8,,0,0.,4.8,1.,4.8
1979-07-30 06:26:48.560 ,3,0,,0,1.,4.8,0.,4.8,,0,0.,4.8,0.,4.8
1979-07-30 06:26:53.360 ,3,0,,0,2.,4.8,0.,4.8,,0,0.,4.8,1.,4.8
1979-07-30 06:26:58.160 ,3,0,,0,1.,4.8,0.,4.8,,0,0.,4.8,0.,4.8
1979-07-30 06:27:02.960 ,3,0,,0,0.,4.8,0.,4.8,,0,0.,4.8,0.,4.8
1979-07-30 06:27:07.760 ,3,0,,0,0.,4.8,0.,4.8,,0,0.,4.8,0.,4.8
1979-07-30 06:27:12.560 ,4,0,,0,0.,4.8,0.,4.8,,0,0.,4.8,2.,4.8
1979-07-30 06:27:17.360 ,4,0,,0,0.,4.8,0.,4.8,,0,0.,4.8,1.,4.8
1979-07-30 06:27:22.160 ,4,0,,0,1.,4.8,0.,4.8,,0,0.,4.8,1.,4.8
1979-07-30 06:27:26.960 ,4,0,,0,3.,4.8,0.,4.8,,0,0.,4.8,0.,4.8
1979-07-30 06:27:31.760 ,4,0,,0,1.,4.8,0.,4.8,,0,0.,4.8,1.,4.8
1979-07-30 06:27:36.560 ,4,0,,0,1.,4.8,0.,4.8,,0,0.,4.8,0.,4.8
1979-07-30 06:27:41.360 ,4,0,,0,4.,4.8,0.,4.8,,0,0.,4.8,0.,4.8
1979-07-30 06:27:46.160 ,4,0,,0,3.,4.8,0.,4.8,,0,0.,4.8,1.,4.8
1979-07-30 06:27:50.960 ,4,0,,0,0.,4.8,0.,4.8,,0,0.,4.8,0.,4.8
1979-07-30 06:27:55.760 ,4,0,,0,1.,4.8,0.,4.8,,0,0.,4.8,0.,4.8
1979-07-30 06:28:00.560 ,5,0,,0,0.,4.8,0.,4.8,,0,0.,4.8,0.,4.8
1979-07-30 06:28:05.360 ,5,0,,0,0.,4.8,0.,4.8,,0,0.,4.8,0.,4.8
1979-07-30 06:28:10.160 ,5,0,,0,0.,4.8,0.,4.8,,0,0.,4.8,1.,4.8
1979-07-30 06:28:14.960 ,5,0,,0,4.,4.8,0.,4.8,,0,0.,4.8,2.,4.8
1979-07-30 06:28:19.760 ,5,0,,0,2.,4.8,0.,4.8,,0,0.,4.8,0.,4.8
1979-07-30 06:28:24.560 ,5,0,,0,2.,4.8,0.,4.8,,0,0.,4.8,1.,4.8
1979-07-30 06:28:29.360 ,5,0,,0,3.,4.8,0.,4.8,,0,0.,4.8,0.,4.8
1979-07-30 06:28:34.160 ,5,0,,0,3.,4.8,0.,4.8,,0,0.,4.8,0.,4.8
1979-07-30 06:28:38.960 ,5,0,,0,0.,4.8,0.,4.8,,0,0.,4.8,1.,4.8
1979-07-30 06:28:43.760 ,5,0,,0,0.,4.8,0.,4.8,,0,0.,4.8,1.,4.8
1979-07-30 06:28:48.560 ,6,0,,0,0.,4.8,0.,4.8,,0,0.,4.8,0.,4.8
1979-07-30 06:28:53.360 ,6,0,,0,0.,4.8,0.,4.8,,0,0.,4.8,0.,4.8
1979-07-30 06:28:58.160 ,6,0,,0,0.,4.8,0.,4.8,,0,0.,4.8,0.,4.8
1979-07-30 06:29:02.960 ,6,0,,0,7.,4.8,0.,4.8,,0,0.,4.8,0.,4.8
1979-07-30 06:29:07.760 ,6,0,,0,2.,4.8,0.,4.8,,0,0.,4.8,1.,4.8
1979-07-30 06:29:12.560 ,6,0,,0,4.,4.8,0.,4.8,,0,0.,4.8,0.,4.8
1979-07-30 06:29:17.360 ,6,0,,0,5.,4.8,0.,4.8,,0,0.,4.8,1.,4.8
1979-07-30 06:29:22.160 ,6,0,,0,3.,4.8,0.,4.8,,0,0.,4.8,0.,4.8
1979-07-30 06:29:26.960 ,6,0,,0,0.,4.8,0.,4.8,,0,0.,4.8,0.,4.8
1979-07-30 06:29:31.760 ,6,0,,0,0.,4.8,0.,4.8,,0,0.,4.8,0.,4.8
1979-07-30 06:29:36.550 ,7,0,,0,0.,4.8,0.,4.8,,0,0.,4.8,1.,4.8
1979-07-30 06:29:41.350 ,7,0,,0,0.,4.8,0.,4.8,,0,0.,4.8,0.,4.8
1979-07-30 06:29:46.150 ,7,0,,0,1.,4.8,0.,4.8,,0,0.,4.8,0.,4.8
1979-07-30 06:29:50.950 ,7,0,,0,14.,4.8,0.,4.8,,0,0.,4.8,0.,4.8
1979-07-30 06:29:55.750 ,7,0,,0,9.,4.8,0.,4.8,,0,0.,4.8,0.,4.8
1979-07-30 06:30:00.550 ,7,0,,0,14.,4.8,0.,4.8,,0,0.,4.8,0.,4.8
1979-07-30 06:30:05.350 ,7,0,,0,7.,4.8,0.,4.8,,0,0.,4.8,0.,4.8
1979-07-30 06:30:10.150 ,7,0,,0,15.,4.8,0.,4.8,,0,0.,4.8,0.,4.8